Location: Gleizolles
(44.4833°N, 6.7667°E)
Time: 03:40:40
(UTC+00:00)

N. Korean satellite - Pass Details

Date: 07 December 2021
Orbit: 447 x 491 km, 97.3° (Epoch: 23 January)

Event Time Altitude Azimuth Distance (km) Brightness Sun altitude
Rises 04:57:33 0° 10° (N) 2,463 10.1 -20.3°
Reaches altitude 10° 04:59:35 10° 9° (N) 1,584 9.1 -19.9°
Maximum altitude 05:02:58 75° 285° (WNW) 469 6.2 -19.3°
Drops below altitude 10° 05:06:19 10° 199° (SSW) 1,571 9.1 -18.7°
Sets 05:08:21 0° 197° (SSW) 2,441 10.1 -18.4°
